Home   Weather   Potsdam   Past weeks

Flag for Germany Past Weather in Potsdam, Brandenburg, Germany — Yesterday and Last 2 Weeks

46 °F


Feels Like: 44 °F
Forecast: 41 / 50 °F
Wind: 5 mph from Southeast

Location: Berlin-Tegel

Current Time: Oct 21, 2016 at 8:30:14 PM

Latest Report: Oct 21, 2016 at 7:50 PM

Visibility: N/A

Pressure: 29.92 "Hg

Humidity: 87%

Dew Point: 43 °F

Location of PotsdamLocation

Past Weather in Potsdam — Graph


Potsdam Temperature Yesterday

Maximum temperature yesterday: 50 °F (at 12:50 PM)
Minimum temperature yesterday: 43 °F (at 7:50 AM)
Average temperature yesterday: 47 °F

High & Low Weather Summary for the Past Weeks

High55 °F (Oct 7, 3:50 PM)100% (Oct 8, 7:50 AM)30.30 "Hg (Oct 8, 7:50 AM)
Low39 °F (Oct 10, 12:50 AM)58% (Oct 14, 2:20 PM)29.86 "Hg (Oct 15, 4:50 AM)
Average47 °F88%30.11 "Hg
* Reported Oct 6 7:20 PM — Oct 21 7:20 PM, Potsdam, Weather by CustomWeather, © 2016

Note: Actual official high and low records may vary slightly from our data, if they occured in-between our weather recording intervals... More about our weather records


Potsdam Weather History for the Previous 24 Hours

Scroll right to see more
Time TempWeatherWind HumidityBarometerVisibility
7:20 PM
Fri, Oct 21
46 °FPassing clouds.6 mph87%29.92 "HgN/A
6:50 PM48 °FPassing clouds.6 mph76%29.92 "HgN/A
6:20 PM48 °FPassing clouds.6 mph82%29.92 "HgN/A
5:50 PM48 °FPartly sunny.7 mph82%29.92 "HgN/A
5:20 PM48 °FPartly sunny.7 mph76%29.92 "HgN/A
4:50 PM48 °FPartly sunny.8 mph76%29.92 "HgN/A
4:20 PM48 °FPartly sunny.8 mph76%29.92 "HgN/A
3:50 PM48 °FPartly sunny.8 mph76%29.89 "HgN/A
3:20 PM48 °FPartly sunny.8 mph76%29.89 "HgN/A
2:50 PM48 °FPartly sunny.8 mph76%29.89 "HgN/A
2:20 PM48 °FBroken clouds.9 mph76%29.89 "HgN/A
1:50 PM50 °FBroken clouds.8 mph71%29.89 "HgN/A
1:20 PM48 °FPartly sunny.9 mph82%29.89 "HgN/A
12:50 PM48 °FBroken clouds.9 mph82%29.89 "HgN/A
12:20 PM48 °FBroken clouds.9 mph82%29.89 "HgN/A
11:50 AM48 °FBroken clouds.10 mph82%29.89 "HgN/A
11:20 AM46 °FBroken clouds.9 mph87%29.89 "HgN/A
10:50 AM46 °FBroken clouds.9 mph87%29.89 "HgN/A
10:20 AM46 °FPartly sunny.8 mph87%29.89 "HgN/A
9:50 AM46 °FPartly sunny.9 mph87%29.89 "HgN/A
9:20 AM46 °FPartly sunny.7 mph87%29.89 "Hg4 mi
8:50 AM46 °FPartly sunny.7 mph93%29.89 "Hg4 mi
8:20 AM46 °FPartly sunny.6 mph87%29.86 "Hg4 mi
7:50 AM46 °FPartly sunny.5 mph93%29.86 "Hg4 mi
7:20 AM46 °FFog.7 mph93%29.86 "Hg3 mi
6:50 AM46 °FFog.6 mph93%29.86 "Hg2 mi
6:20 AM46 °FFog.7 mph93%29.86 "Hg2 mi
5:50 AM46 °FFog.5 mph93%29.86 "Hg2 mi
5:20 AM46 °FFog.3 mph93%29.86 "Hg2 mi
4:50 AM46 °FFog.3 mph93%29.86 "Hg2 mi
4:20 AM45 °FDrizzle. Fog.5 mph100%29.86 "Hg2 mi
3:50 AM45 °FDrizzle. Fog.6 mph100%29.89 "Hg2 mi
3:20 AM45 °FDrizzle. Fog.5 mph100%29.89 "Hg2 mi
2:50 AM45 °FDrizzle. Fog.6 mph100%29.89 "Hg2 mi
2:20 AM45 °FFog.6 mph93%29.89 "Hg1 mi
1:50 AM45 °FFog.3 mph93%29.92 "Hg2 mi
1:20 AM45 °FFog.5 mph93%29.92 "Hg1 mi
12:50 AM43 °FFog.3 mph100%29.92 "Hg1 mi
12:20 AM43 °FFog.5 mph100%29.92 "Hg1 mi
11:50 PM
Thu, Oct 20
45 °FFog.3 mph93%29.92 "Hg2 mi
11:20 PM45 °FFog.3 mph93%29.92 "Hg2 mi
10:50 PM45 °FFog.3 mph100%29.92 "Hg2 mi
10:20 PM45 °FFog.7 mph100%29.92 "Hg3 mi
9:50 PM45 °FFog.2 mph93%29.95 "Hg3 mi
9:20 PM45 °FPartly cloudy.5 mph93%29.92 "Hg4 mi
8:50 PM45 °FPassing clouds.3 mph93%29.95 "Hg4 mi
8:20 PM45 °FClear.5 mph93%29.95 "Hg6 mi
Weather by CustomWeather, © 2016

See weather overviewHow to use our weather pages